Startseite
Über Mich
AHP4
Galerie
Sehschlangen
Tourenbuch
Bookmarks
Elektronik
Bewertung
Geschichten
[Tagesmessung] [Jahreswerte] [Information]

Messwerte vom 03.01.2022

Die letzten Messwerte von 23:58:48 Uhr:
KategorieMesswert
Temperatur [°C]7
Luftdruck [mBar]987
Sonneneinstrahlung0
Wind [km/h]0 aus Südwest
Niederschlag [l/m²]0
rel.Luftfeucht.96.6%
CO2 [ppm]581

Diagramme
Messwerte vom 03.01.2022
Tagesaggregation
KategorieMinimumMaximumSchnittSumme
Temperatur [°C]5118.3479
Luftdruck [mBar]987993990.3646
Sonneneinstrahlung23461.0479
Wind [km/h]28
rF [%]73.496.690.52
Niederschlag [l/m²]0.515
CO2 [ppm]403850652.0
Einordnung alsVegetationstag

Messungen an benachbarten Tagen: Zur Jahresaggregation 2022
Tabelle aller Messwerte
UhrzeitTemperatur [°C]Luftdruck [mBar]SonneWind [km/h]RichtungRegen [l/m²]rF [%]CO2 [ppm]
00:01:46 10 991 0 5 S 0 88.5 739
00:04:46 10 991 0 8 N 0 88.5 738
00:07:47 10 991 0 7 SO 0 88.4 735
00:10:47 10 991 0 5 SW 0 88.3 738
00:13:45 10 991 0 6 W 0 88.4 740
00:16:45 10 991 0 11 O 0 88.4 740
00:19:49 10 991 0 7 SW 0 88.7 725
00:22:49 10 991 0 8 S 0 89.7 726
00:25:47 10 991 0 10 O 0 90.1 729
00:28:47 9 991 0 11 SW 0 91.1 741
00:31:47 9 991 0 9 SO 0 92.6 737
00:34:48 9 991 0 11 SO 0 94.1 734
00:37:47 9 990 0 7 SW 0 95.6 729
00:40:47 9 991 0 9 SO 0 96.5 734
00:43:49 9 991 0 4 SO 0 96.6 731
00:46:46 9 991 0 5 SW 0 96.6 726
00:49:45 8 990 0 7 S 0 96.6 725
00:52:44 8 990 0 2 S 0 96.6 731
00:55:47 8 990 0 2 S 0 96.6 740
00:58:46 8 990 0 8 S 0 96.6 738
01:01:47 9 990 0 17 S 0 96.6 732
01:04:47 9 991 0 20 SO 0 96.6 724
01:07:47 9 990 0 9 W 0 96.6 718
01:10:49 9 990 0 9 SO 0 96.5 712
01:13:46 9 990 0 2 0 96.4 724
01:16:45 9 991 0 3 0 96.3 721
01:19:46 9 991 0 4 SW 0 96.3 723
01:22:47 9 991 0 3 SW 0 96.4 726
01:25:46 9 990 0 3 S 0 96.5 721
01:28:47 8 990 0 3 SW 0 96.4 721
01:31:45 8 990 0 3 S 0 96.5 720
01:34:46 8 991 0 6 SO 0 96.6 725
01:37:50 8 990 0 11 SW 0 96.6 723
01:40:47 8 990 0 6 S 0 96.5 723
01:43:49 8 990 0 4 SW 0 96.5 720
01:46:47 8 990 0 4 SW 0 96.5 729
01:49:45 8 990 0 11 S 0 96.6 724
01:52:47 8 990 0 7 SW 0 96.5 725
01:55:47 8 990 0 6 SO 0 96.4 720
01:58:46 8 990 0 9 SW 0 96.3 718
02:01:47 9 991 0 12 SW 0 96.2 715
02:04:47 9 990 0 5 S 0 95.7 714
02:07:46 9 990 0 4 SO 0 95.4 714
02:10:46 9 990 0 5 W 0 95 715
02:13:46 9 990 0 2 NW 0 94.9 722
02:16:47 9 990 0 5 S 0 94.6 720
02:19:47 9 990 0 11 SW 0 94.2 711
02:22:46 9 989 0 17 O 0 93.9 708
02:25:47 9 989 0 12 SW 0 93.6 706
02:28:47 9 990 0 6 SW 0 93.3 705
02:31:47 9 989 0 4 N 0 92.7 705
02:34:48 9 989 0 6 SW 0 91.9 702
02:37:47 10 990 0 7 SW 0 91.2 700
02:40:50 10 989 0 10 NW 0 90.5 702
02:43:47 10 990 0 4 W 0 89.9 702
02:46:47 10 989 0 5 NO 0 89.3 703
02:49:46 10 990 0 5 SW 0 89.2 700
02:52:48 10 989 0 12 SW 0 88.3 700
02:55:47 10 989 0 5 SW 0 87.2 700
02:58:47 10 990 0 12 N 0 86.9 697
03:01:46 10 990 0 11 S 0 87 690
03:04:46 10 990 0 9 W 0 87.1 685
03:07:46 10 991 0 5 SW 0 87.2 686
03:10:49 10 990 0 11 SW 0 88.1 679
03:13:46 10 990 0 6 SW 0 88.7 675
03:16:46 9 991 0 22 SW 0 89.3 667
03:19:48 9 991 0 13 W 0 90.5 661
03:22:45 9 991 0 8 W 0 92.1 653
03:25:47 9 991 0 10 SW 0 93.7 638
03:28:48 9 991 0 21 SW 0 95.3 623
03:31:48 9 990 0 23 S 0 96.6 603
03:34:47 9 991 0 8 W 0 96.6 592
03:37:47 8 991 0 11 S 0 96.6 588
03:40:47 8 991 0 18 W 0 96.6 571
03:43:45 8 991 0 9 W 0 96.6 559
03:46:46 8 991 0 19 W 0 96.6 545
03:49:46 8 991 0 10 S 0 96.6 547
03:52:45 8 991 0 12 S 0 96.6 538
03:55:49 8 991 0 26 NW 0 96.6 531
03:58:46 8 991 0 10 SW 0 96.6 531
04:01:48 8 991 0 13 SW 0 96.6 527
04:04:48 8 991 0 21 SW 0 96.5 533
04:07:46 8 991 0 12 W 0 96.3 530
04:10:48 8 991 0 11 NW 0 96.3 528
04:13:47 8 991 0 11 W 0 96.2 528
04:16:46 8 991 0 6 S 0 96.3 524
04:19:46 8 991 0 7 NW 0 96.1 533
04:22:48 8 991 0 7 NW 0 96.2 531
04:25:45 8 991 0 11 W 0 96.3 516
04:28:46 8 991 0 16 W 0 96 504
04:31:46 8 991 0 19 W 0 95.9 504
04:34:47 8 991 0 8 N 0 95.8 513
04:37:47 8 991 0 11 SW 0 95.8 510
04:40:48 8 991 0 10 SW 0.2575 96 515
04:43:48 8 991 0 8 NW 0 96.3 503
04:46:45 8 991 0 13 S 0 96.6 504
04:49:45 8 991 0 13 W 0 96.6 489
04:52:48 8 991 0 10 W 0 96.6 492
04:55:46 8 991 0 8 S 0 96.6 490
04:58:45 8 991 0 7 S 0 96.6 489
05:01:48 8 991 0 9 W 0 96.6 492
05:04:47 8 991 0 13 W 0 96.6 495
05:07:48 8 991 0 15 SW 0 96.6 492
05:10:47 8 991 0 6 S 0 96.6 504
05:13:47 8 991 0 21 SW 0 96.6 521
05:16:45 8 991 0 11 W 0 96.6 533
05:19:48 8 991 0 12 SW 0 96.6 518
05:22:47 8 992 0 7 SW 0 96.6 507
05:25:46 8 991 0 24 NW 0 96.6 504
05:28:46 8 991 0 4 SW 0 96.6 519
05:31:44 8 991 0 3 W 0 96.6 520
05:34:46 8 991 0 7 S 0 96.6 517
05:37:47 8 991 0 4 NW 0 96.6 518
05:40:45 8 991 0 6 S 0 96.6 521
05:43:45 8 991 0 5 W 0 96.6 521
05:46:46 8 991 0 13 S 0 96.6 516
05:49:46 8 991 0 12 S 0 96.6 512
05:52:47 8 991 0 9 SW 0 96.6 507
05:55:48 8 991 0 3 SW 0 96.6 519
05:58:46 8 991 0 6 S 0 96.6 528
06:01:47 8 991 0 7 SW 0 96.1 540
06:04:47 8 991 0 11 S 0 95.4 542
06:07:45 8 991 0 6 W 0 95.2 539
06:10:46 8 991 0 2 SO 0 94.8 544
06:13:45 8 991 0 5 SO 0 94.7 544
06:16:45 8 991 0 2 SW 0 94 547
06:19:47 8 992 0 7 SO 0 93.9 548
06:22:47 8 991 0 5 W 0 93.9 538
06:25:46 8 991 0 2 O 0 93.8 539
06:28:46 8 991 0 3 SW 0 93.8 538
06:31:45 8 991 0 0 N 0 93.9 553
06:34:48 8 991 0 7 SW 0 94 560
06:37:49 8 991 0 18 O 0 93.1 553
06:40:44 8 991 0 7 W 0 92.7 547
06:43:48 8 991 0 5 NW 0 92.8 554
06:46:47 8 991 0 8 SW 0 93 551
06:49:46 8 991 0 6 S 0 93 556
06:52:47 8 991 0 12 SO 0 92.9 554
06:55:49 8 992 0 8 SW 0 92.9 557
06:58:47 8 991 0 6 W 0 92.9 556
07:01:45 8 991 0 11 S 0 92.8 564
07:04:47 8 991 0 9 NO 0 93.2 565
07:07:47 8 991 0 4 W 0 94.2 559
07:10:46 8 991 0 5 W 0 94.8 550
07:13:47 8 991 0 9 SW 0 95.1 542
07:16:48 8 992 0 6 SW 0 95.5 541
07:19:47 8 991 0 24 SW 0 95.9 542
07:22:47 8 991 0 12 W 0 95.8 548
07:25:47 8 991 0 5 W 0 95.5 554
07:28:45 8 991 0 18 O 0 95.5 567
07:31:47 8 991 0 7 NO 0 95.7 579
07:34:47 8 991 0 6 SO 0 95.4 582
07:37:48 8 991 0 14 S 0 95.6 579
07:40:44 8 991 0 7 SO 0 96.1 570
07:43:46 8 991 0 6 W 0 96.5 580
07:46:47 8 991 0 7 NW 0 96.6 585
07:49:45 8 992 0 11 S 0 96.6 590
07:52:49 8 991 0 6 NW 0 96.6 592
07:55:47 8 991 0 2 NW 0 96.6 600
07:58:46 8 992 4 12 SO 0 96.6 603
08:01:45 8 992 4 4 O 0 96.6 605
08:04:48 8 991 9 7 S 0 96.6 615
08:07:45 8 991 15 5 SW 0 96.5 614
08:10:46 8 991 22 11 S 0 96.1 623
08:13:46 8 992 29 4 S 0 96.2 627
08:16:46 8 992 37 5 W 0 96.6 629
08:19:46 8 991 44 4 SW 0 96.6 627
08:22:45 8 992 47 4 S 0 96.6 620
08:25:48 8 991 58 12 SW 0 96.6 620
08:28:50 8 992 63 5 SW 0 96.5 623
08:31:48 8 992 74 5 0 96.3 626
08:34:47 8 992 74 12 N 0 96.2 592
08:37:49 8 991 56 5 SO 0 95.8 580
08:40:48 8 992 106 13 N 0.2575 95.6 585
08:43:51 8 993 110 0 SW 0 96.6 606
08:46:48 8 992 121 4 S 0 96.6 614
08:49:46 8 993 123 5 W 0 96.6 618
08:52:50 8 992 123 4 SW 0 96.6 618
08:55:48 8 991 132 9 NW 0 96.6 620
08:58:50 8 991 142 12 NO 0 96.6 623
09:01:49 8 992 146 15 S 0 96.6 626
09:04:46 8 992 147 4 0 96.4 629
09:07:46 8 991 148 14 W 0 96.1 626
09:10:48 8 992 152 9 S 0 95.7 634
09:13:46 8 992 159 7 N 0 95.3 635
09:16:49 8 992 161 7 SW 0 94.8 635
09:19:48 8 993 163 3 W 0 94.3 635
09:22:47 8 993 165 5 W 0 94.1 636
09:25:48 9 992 165 2 S 0 93.4 635
09:28:47 9 992 157 3 O 0 93.3 633
09:31:49 9 993 166 2 NW 0 92.9 635
09:34:47 9 992 159 2 S 0 92.5 645
09:37:48 9 992 168 17 NW 0 92.1 635
09:40:48 9 993 173 7 NO 0 91.8 641
09:43:48 9 993 175 13 SO 0 91.2 635
09:46:49 9 992 174 7 N 0 90.8 635
09:49:47 9 992 171 16 O 0 90.8 633
09:52:49 9 993 170 3 SW 0 90.8 638
09:55:50 9 993 180 5 NW 0 90.9 649
09:58:48 9 992 177 10 S 0 90.8 653
10:01:46 9 993 177 4 S 0 90.5 658
10:04:48 9 993 184 12 SO 0 90.5 659
10:07:46 9 992 183 9 O 0 90.3 659
10:10:48 9 993 181 9 W 0 90 656
10:13:48 9 993 173 7 O 0 89.9 662
10:16:48 9 993 189 8 W 0 89.8 667
10:19:51 9 993 183 2 SW 0 89.8 672
10:22:49 9 992 183 4 SW 0 89.8 668
10:25:47 9 992 197 1 SW 0 89.2 670
10:28:47 9 992 197 2 N 0 89.1 674
10:31:47 9 992 196 8 S 0 89 683
10:34:49 9 992 194 6 W 0 88.7 682
10:37:47 9 993 195 3 SW 0 86.9 670
10:40:50 9 992 193 3 NO 0 86.4 670
10:43:48 9 993 192 5 SO 0 86.8 676
10:46:49 9 992 190 3 SW 0 86.7 680
10:49:48 9 992 199 8 SW 0 86.3 673
10:52:48 10 992 200 4 SO 0 84.7 664
10:55:46 10 992 203 3 S 0 84.3 665
10:58:47 10 992 196 2 S 0 84.4 661
11:01:46 10 992 192 6 W 0 84.4 655
11:04:50 10 992 185 2 NW 0 84.4 650
11:07:46 10 992 184 6 W 0 84 652
11:10:47 10 992 192 7 S 0 82.4 656
11:13:48 10 992 198 4 S 0 82.6 662
11:16:46 10 992 200 7 SW 0 83.4 662
11:19:48 10 992 203 4 SO 0 83.5 659
11:22:49 10 993 204 3 S 0 82 662
11:25:48 10 993 210 9 O 0 82.1 658
11:28:48 10 992 211 7 NO 0 80.2 670
11:31:50 10 992 211 9 SW 0 80.3 661
11:34:46 10 992 212 3 S 0 80.4 661
11:37:51 10 993 206 10 SW 0 80.1 663
11:40:49 10 992 207 6 SW 0 79.4 660
11:43:47 10 992 209 2 W 0 79.1 667
11:46:49 10 992 203 2 O 0 79.4 673
11:49:48 10 992 199 4 SW 0 79.3 667
11:52:47 10 992 197 2 O 0 80.7 660
11:55:49 10 992 172 6 W 0 80.2 652
11:58:46 10 992 174 13 S 0 79.6 650
12:01:49 10 992 174 3 SW 0 79.1 647
12:04:48 10 993 200 10 W 0 79.3 653
12:07:48 10 992 204 4 S 0 79.8 659
12:10:51 10 991 206 7 W 0 80.2 663
12:13:49 10 992 204 1 SW 0 80.2 667
12:16:46 10 992 212 7 W 0 79.9 664
12:19:49 11 992 207 2 NW 0 79 687
12:22:52 11 992 214 3 NW 0 79.2 682
12:25:49 11 992 209 4 NO 0 79.3 693
12:28:50 11 991 210 5 NO 0 78.6 691
12:31:49 11 991 208 2 SO 0 77.6 709
12:34:49 11 992 205 6 SW 0 77.7 705
12:37:46 11 991 205 4 S 0 77.7 719
12:40:47 11 991 210 14 SO 0 76.8 723
12:43:48 11 992 205 6 SW 0 75.7 723
12:46:49 11 991 207 5 O 0 74.6 731
12:49:46 11 991 210 7 S 0 74.7 738
12:52:48 11 991 201 28 W 0 74.3 747
12:55:48 11 992 194 4 W 0 74.5 741
12:58:50 11 992 203 4 SW 0 75.5 739
13:01:47 11 991 206 2 SW 0 76.5 740
13:04:48 11 991 215 5 W 0 77.4 748
13:07:48 11 992 220 10 SW 0 77.7 750
13:10:47 11 991 217 3 SW 0 77.1 739
13:13:50 11 991 221 5 SW 0 74.3 729
13:16:47 11 991 206 10 S 0 73.6 731
13:19:49 11 991 203 13 N 0 73.7 739
13:22:46 11 991 212 4 NW 0 73.4 747
13:25:51 11 991 211 10 SW 0 74.6 751
13:28:45 11 991 217 8 S 0 75 751
13:31:48 11 991 208 5 SW 0 75.9 758
13:34:48 11 992 208 8 S 0 75.4 749
13:37:51 11 991 216 2 SO 0 75.3 746
13:40:48 11 991 207 4 SO 0 76 737
13:43:47 11 991 207 9 O 0 76 735
13:46:48 11 991 209 8 S 0 75.5 738
13:49:46 11 991 196 8 SW 0 76 743
13:52:49 11 991 185 3 SO 0 76.2 738
13:55:49 10 991 169 8 O 0 76.2 743
13:58:46 10 991 162 5 S 0 77 743
14:01:46 10 991 166 8 S 0 77.5 746
14:04:48 10 991 166 4 S 0 78.2 746
14:07:50 10 991 179 5 S 0 79 743
14:10:48 10 991 170 9 SO 0 78.9 740
14:13:47 10 991 154 8 SO 0 78.6 741
14:16:49 10 991 176 4 SW 0 78.7 744
14:19:50 10 991 194 10 SW 0 78.8 750
14:22:47 10 991 202 8 W 0 78.5 739
14:25:47 10 991 211 5 SO 0 79 732
14:28:48 10 991 212 6 N 0 78.9 727
14:31:48 10 991 201 3 SO 0 78.8 735
14:34:49 10 991 197 3 S 0 78.8 743
14:37:48 10 991 192 7 W 0 78.8 747
14:40:49 10 991 195 13 SO 0 79.2 759
14:43:47 10 991 234 4 N 0 79.3 759
14:46:45 10 991 213 2 W 0 79.4 760
14:49:49 10 991 208 6 SO 0 79.6 758
14:52:46 10 991 203 4 S 0 79.1 764
14:55:48 10 991 206 9 NW 0 78.7 768
14:58:47 10 991 196 4 SW 0 78.7 774
15:01:48 10 991 199 7 W 0 79.4 773
15:04:48 10 991 205 16 W 0 79 788
15:07:49 10 991 212 3 SW 0 78.7 785
15:10:48 10 991 201 6 SW 0 78.9 775
15:13:48 10 991 196 8 SO 0 78.3 771
15:16:48 10 991 194 5 SW 0 78.5 778
15:19:48 10 991 197 8 NW 0 78.6 779
15:22:49 10 991 202 2 SW 0 78.6 788
15:25:50 10 991 187 5 SW 0 79.1 786
15:28:48 10 991 181 5 NW 0 79.3 788
15:31:46 10 991 173 1 S 0 79.6 787
15:34:48 9 991 164 5 SW 0 79.7 779
15:37:47 9 991 172 10 SW 0 79.9 778
15:40:47 9 991 174 3 SW 0 80.3 791
15:43:48 9 991 165 9 S 0 81.1 787
15:46:47 9 991 159 3 S 0 81.5 791
15:49:47 9 991 150 5 S 0 81.9 784
15:52:48 9 991 159 2 SW 0 82.3 793
15:55:47 9 991 152 3 W 0 82.7 795
15:58:49 9 991 148 3 W 0 82.7 794
16:01:48 9 991 142 5 S 0 82.8 800
16:04:47 9 991 136 1 S 0 83 799
16:07:47 9 991 130 7 S 0 83.2 803
16:10:46 9 991 121 4 S 0 83.4 808
16:13:46 9 991 113 2 S 0 83.5 794
16:16:49 9 991 103 4 O 0 84 779
16:19:47 9 990 93 4 N 0 84.2 767
16:22:48 8 991 82 1 S 0 84.3 768
16:25:45 8 991 71 1 S 0 84.4 785
16:28:50 8 991 59 2 S 0 84.6 785
16:31:48 8 991 47 3 S 0 84.5 781
16:34:47 8 991 36 4 SO 0 84.5 784
16:37:45 8 991 26 6 N 0 84.1 785
16:40:46 8 990 18 2 O 0 83.8 795
16:43:49 8 990 13 5 S 0 83.6 801
16:46:46 8 990 9 5 S 0 83.6 811
16:49:47 8 991 6 2 N 0 83.8 819
16:52:48 8 991 4 2 S 0 84.4 820
16:55:46 8 991 3 0 SW 0 84.7 820
16:58:46 8 991 0 1 S 0 85.4 818
17:01:46 8 990 0 2 O 0 85.7 825
17:04:48 8 990 0 3 NW 0 86.2 828
17:07:47 8 991 0 2 SW 0 86.4 837
17:10:45 8 991 0 2 O 0 86.5 847
17:13:47 8 991 0 3 S 0 86.8 850
17:16:47 8 990 0 4 SW 0 86.9 843
17:19:45 8 991 0 4 S 0 86.9 834
17:22:46 8 990 0 2 S 0 86.8 831
17:25:46 8 990 0 4 SW 0 87.4 834
17:28:46 8 991 0 4 W 0 87.8 837
17:31:47 8 990 0 1 O 0 88 834
17:34:46 7 990 0 2 SO 0 88.6 840
17:37:47 7 990 0 6 S 0 89.5 846
17:40:46 7 989 0 1 S 0 89.9 844
17:43:46 7 990 0 5 O 0 90.3 826
17:46:46 7 990 0 2 SW 0 90.3 818
17:49:45 7 990 0 2 W 0 90.7 828
17:52:47 7 990 0 2 SW 0 91 841
17:55:44 7 989 0 5 S 0 91.5 843
17:58:47 7 990 0 10 N 0 91.7 829
18:01:49 7 990 0 1 SO 0 91.8 828
18:04:48 7 990 0 1 SW 0 91.8 820
18:07:49 7 989 0 2 NO 0 92.2 817
18:10:46 7 991 0 1 SW 0 92.4 819
18:13:47 7 989 0 2 SW 0 92.8 825
18:16:48 7 989 0 5 SO 0 92.9 820
18:19:48 8 990 0 5 SW 0 92.6 823
18:22:47 8 989 0 6 SO 0 92.5 825
18:25:45 8 990 0 8 S 0 91.4 831
18:28:49 8 989 0 6 SW 0 90.9 832
18:31:47 8 989 0 4 O 0 89.9 828
18:34:48 8 990 0 5 SW 0 89.3 823
18:37:46 8 989 0 3 S 0 89.1 825
18:40:47 8 989 0 14 S 0 89.2 817
18:43:45 8 990 0 3 S 0 89.5 817
18:46:50 8 989 0 2 W 0 90.1 815
18:49:48 8 990 0 8 SO 0 90.2 823
18:52:47 8 990 0 4 W 0 90.5 824
18:55:47 8 989 0 1 S 0 90.7 822
18:58:48 8 990 0 3 SO 0 90.9 820
19:01:48 8 989 0 2 SO 0 90.9 816
19:04:45 8 989 0 5 S 0 91 817
19:07:48 8 989 0 1 W 0 91.1 820
19:10:46 8 990 0 3 N 0 91.2 816
19:13:46 8 989 0 1 SO 0 91.8 799
19:16:45 8 989 0 1 S 0 92.8 767
19:19:47 8 989 0 3 S 0 94.1 779
19:22:47 8 990 0 1 NW 0 94.7 789
19:25:46 8 989 0 0 W 0 95 781
19:28:45 7 989 0 2 S 0 95.3 772
19:31:46 7 989 0 1 SW 0 95.6 769
19:34:44 7 989 0 2 S 0 96.1 766
19:37:48 7 990 0 0 SW 0 96.2 763
19:40:47 7 989 0 3 S 0 96.3 756
19:43:46 7 989 0 7 SO 0 96.4 756
19:46:44 7 988 0 2 W 0 96.6 747
19:49:47 7 988 0 2 S 0 96.6 712
19:52:47 7 988 0 2 S 0 96.6 407
19:55:45 7 989 0 3 SW 0 96.6 407
19:58:45 7 988 0 0 W 0 96.6 407
20:01:48 7 989 0 0 SW 0 96.6 407
20:04:45 7 988 0 2 S 0 96.6 404
20:07:46 6 989 0 5 SW 0 96.6 406
20:10:48 6 989 0 0 O 0 96.6 404
20:13:46 6 988 0 1 S 0 96.6 407
20:16:46 6 989 0 5 SW 0 96.6 407
20:19:45 6 988 0 3 S 0 96.6 403
20:22:49 6 988 0 5 SW 0 96.6 406
20:25:47 6 988 0 2 SO 0 96.6 407
20:28:47 6 988 0 4 NW 0 96.6 404
20:31:46 6 988 0 5 S 0 96.6 406
20:34:45 6 988 0 3 W 0 96.6 406
20:37:47 6 989 0 2 S 0 96.6 407
20:40:47 6 988 0 3 SO 0 96.6 404
20:43:48 6 988 0 2 SW 0 96.6 410
20:46:45 6 988 0 0 S 0 96.6 410
20:49:45 6 988 0 4 S 0 96.6 420
20:52:47 6 988 0 2 SO 0 96.6 421
20:55:46 6 988 0 5 SW 0 96.6 427
20:58:47 6 988 0 2 S 0 96.6 439
21:01:47 6 988 0 1 W 0 96.6 450
21:04:46 6 988 0 6 SO 0 96.6 456
21:07:45 6 988 0 2 S 0 96.6 454
21:10:46 6 988 0 3 SW 0 96.6 459
21:13:46 6 988 0 5 SW 0 96.6 453
21:16:45 6 988 0 2 O 0 96.6 463
21:19:45 6 988 0 4 S 0 96.6 462
21:22:45 6 987 0 3 SW 0 96.6 469
21:25:45 6 988 0 5 S 0 96.6 472
21:28:47 6 988 0 2 S 0 96.6 480
21:31:52 6 988 0 2 SW 0 96.6 486
21:34:47 6 987 0 3 SO 0 96.6 490
21:37:48 6 987 0 2 SW 0 96.6 486
21:40:47 6 988 0 3 SO 0 96.6 492
21:43:45 6 987 0 5 S 0 96.6 498
21:46:45 6 988 0 2 W 0 96.6 507
21:49:47 6 987 0 2 S 0 96.6 512
21:52:46 6 987 0 5 SW 0 96.6 513
21:55:47 6 987 0 3 SW 0 96.6 513
21:58:46 6 988 0 6 W 0 96.6 516
22:01:46 6 988 0 1 O 0 96.6 516
22:04:46 6 988 0 3 SW 0 96.6 519
22:07:46 6 987 0 1 S 0 96.6 528
22:10:44 6 987 0 1 S 0 96.6 538
22:13:46 6 987 0 1 S 0 96.6 539
22:16:47 6 987 0 1 NW 0 96.6 542
22:19:45 5 988 0 1 W 0 96.6 541
22:22:45 5 987 0 3 S 0 96.6 542
22:25:46 5 987 0 2 SW 0 96.6 536
22:28:47 5 987 0 2 O 0 96.6 541
22:31:47 5 987 0 1 SW 0 96.6 542
22:34:46 6 987 0 5 W 0 96.6 542
22:37:47 6 988 0 2 SW 0 96.6 545
22:40:50 6 987 0 4 SO 0 96.6 530
22:43:46 6 988 0 0 S 0 96.6 536
22:46:46 6 987 0 0 SO 0 96.6 541
22:49:46 6 987 0 1 SW 0 96.6 541
22:52:45 6 987 0 1 S 0 96.6 543
22:55:45 6 987 0 2 S 0 96.6 542
22:58:45 6 987 0 2 W 0 96.6 549
23:01:46 6 987 0 1 W 0 96.6 553
23:04:48 6 988 0 2 S 0 96.6 556
23:07:48 6 988 0 2 SO 0 96.6 556
23:10:47 6 987 0 0 SO 0 96.6 556
23:13:43 6 987 0 3 S 0 96.6 553
23:16:46 6 987 0 2 SW 0 96.6 564
23:19:47 6 988 0 1 S 0 96.6 562
23:22:48 6 987 0 1 NO 0 96.6 562
23:25:47 7 987 0 2 S 0 96.6 556
23:28:46 7 987 0 1 W 0 96.6 562
23:31:46 7 987 0 3 S 0 96.6 572
23:34:46 7 987 0 0 S 0 96.6 573
23:37:45 7 987 0 3 S 0 96.6 571
23:40:47 7 987 0 2 SW 0 96.6 575
23:43:46 7 987 0 5 S 0 96.6 575
23:46:46 7 987 0 3 SO 0 96.6 577
23:49:47 7 987 0 4 SW 0 96.6 580
23:52:47 7 987 0 1 S 0 96.6 589
23:55:47 7 987 0 2 SO 0 96.6 589
23:58:48 7 987 0 0 SW 0 96.6 581

Letzte Änderung : 04-Jan-2022
Copyright Jens Köhler, Wolfsburg, Obere Dorfstraße 10d